Temp
13 13 12 12 13 13 13 13 13 13 13 13 13 13 13 13 13 12 12 12 12 11 11 12 12 12 12 12 12 11 11 11 11 11 11 11 10 10 10 10 10 10 10 10 10 11 11 10 10 10 9 9 8 8 8 7 7 7 7 7 7 7 7 7 7 6 6 6 6 6 5 5 5 5
13 12 12 12 13 13 13 13 13 13 13 13 13 13 13 13 13 13 13 12 11 11 11 11 12 12 11 11 11 11 11 11 11 11 10 10 10 10 10 10 10 10 10 10 10 10 10 10 10 9 9 8 8 8 7 7 7 7 7 7 7 7 7 7 6 6 6 5 5 5 5 5 5 5
13 12 12 12 12 13 13 13 13 13 13 13 13 13 13 13 13 14 14 13 12 12 12 12 12 11 11 11 11 11 11 11 10 10 10 10 10 10 10 10 10 9 10 10 10 10 10 10 9 9 8 8 8 8 7 7 6 6 7 7 7 7 6 6 6 5 5 5 5 5 5 5 5 5
12 12 12 12 12 13 13 13 13 13 13 13 13 13 13 13 13 13 14 13 13 12 12 12 12 11 11 11 11 11 11 10 10 10 10 10 10 10 9 9 9 9 9 10 10 10 10 9 9 8 8 8 7 7 7 6 6 6 6 6 6 6 6 6 5 5 5 5 5 5 5 5 5 4
12 12 12 12 12 12 13 13 13 13 13 13 13 13 13 13 13 13 13 13 13 13 12 12 12 11 11 11 11 10 10 10 10 10 9 9 9 9 9 9 9 9 9 9 10 10 9 9 8 7 7 7 7 7 6 6 6 6 6 6 6 6 6 5 5 5 4 4 5 5 5 4 4 4
12 12 12 12 12 12 13 13 13 14 14 13 13 13 13 13 13 13 13 13 13 13 13 12 11 11 11 11 10 10 10 10 10 9 9 9 9 9 9 9 9 9 9 9 9 9 8 8 7 7 7 7 6 6 6 6 6 6 6 6 6 6 5 5 4 4 4 4 4 4 4 4 4 4
11 12 12 13 13 12 12 13 13 14 14 13 13 13 13 13 13 13 13 13 13 13 13 13 12 11 11 11 10 10 9 9 9 9 9 9 9 9 9 8 8 9 9 9 9 8 8 7 6 6 6 6 6 6 5 5 6 6 6 6 5 5 5 4 4 4 4 4 4 4 4 4 3 3
11 11 12 13 13 12 12 13 13 14 14 13 13 13 13 13 13 13 13 13 13 13 13 13 12 11 11 11 10 10 9 9 8 9 9 9 9 8 8 8 8 8 8 8 8 7 7 6 6 6 5 5 5 5 5 5 5 5 5 5 5 5 4 4 4 4 4 4 4 4 4 3 3 3
11 11 11 12 13 12 12 13 13 14 14 13 13 13 13 13 13 13 13 13 13 13 14 13 12 11 11 10 10 9 9 9 8 8 8 8 8 8 8 8 8 8 8 8 7 7 6 6 6 5 5 5 5 5 5 5 5 5 5 5 5 4 4 4 4 4 4 4 3 3 3 3 3 2
11 11 11 12 12 12 12 13 14 14 14 13 13 13 13 13 13 13 12 12 12 12 13 14 13 11 10 10 10 9 9 9 9 9 8 8 8 8 8 8 8 8 7 7 7 6 6 6 5 5 5 5 5 5 5 5 5 5 5 5 4 4 4 3 3 3 3 3 3 3 3 2 2 2
11 11 11 12 13 13 13 13 14 14 13 13 13 13 13 13 13 13 13 12 12 12 13 13 13 12 11 10 10 9 9 8 8 9 9 8 8 8 8 8 8 7 7 7 6 6 6 5 5 5 5 5 5 5 5 5 5 5 5 4 4 3 3 3 3 3 3 3 3 3 2 2 2 2
11 11 12 12 13 13 13 13 14 14 14 13 13 13 13 13 13 13 13 12 12 12 13 13 13 13 12 10 10 9 9 8 8 8 8 8 8 8 8 8 7 7 7 6 6 6 5 5 5 4 4 5 4 4 5 5 5 5 4 4 3 3 3 3 3 3 3 3 2 2 2 2 2 2
11 11 11 12 13 13 13 13 14 14 14 14 13 13 13 14 13 13 13 12 12 12 12 13 13 12 12 11 10 10 9 9 9 9 8 8 8 8 8 7 7 7 7 6 6 6 5 5 5 5 4 4 4 4 4 4 4 4 4 4 3 2 2 2 3 3 2 2 2 2 2 1 1 1
10 11 11 12 13 13 13 13 13 14 14 14 14 14 14 14 13 13 13 12 12 12 13 13 13 12 12 12 11 11 11 10 9 9 9 8 8 8 8 7 7 7 6 6 6 5 5 5 5 5 4 4 4 4 4 4 4 4 4 3 2 2 2 2 2 2 2 2 2 2 1 1 1 1
10 11 11 12 13 13 12 12 13 13 13 13 14 14 14 14 14 14 13 12 12 13 13 13 13 13 13 12 11 11 11 10 9 9 9 8 8 8 8 7 7 6 6 6 5 5 5 5 5 4 4 4 4 4 4 4 4 4 3 2 2 2 2 2 2 2 2 2 2 1 1 1 1 1
10 11 11 12 12 12 12 12 13 13 13 13 13 14 14 14 14 14 14 14 14 14 14 13 13 13 13 12 12 12 11 11 10 9 8 8 8 8 8 7 7 6 6 6 6 5 5 5 5 4 4 4 4 4 4 4 3 3 2 2 2 2 2 2 2 2 2 2 1 1 1 1 0 0
10 11 11 12 12 12 12 12 12 12 13 13 13 13 13 13 13 14 14 14 14 15 14 14 13 13 13 12 12 12 12 11 10 9 8 8 8 8 7 7 7 6 6 6 6 5 5 5 4 4 4 4 4 4 4 3 3 2 2 2 2 2 2 2 2 2 2 1 1 1 0 0 0 0
10 11 11 11 12 12 12 13 12 12 13 13 13 13 13 12 13 13 13 13 13 13 14 14 14 14 13 13 12 12 11 10 10 9 9 9 8 7 7 7 7 6 6 6 6 5 5 5 4 4 4 4 4 4 3 3 2 2 2 2 2 2 2 2 2 2 1 1 1 -0 -0 -0 -0 -0
10 11 11 12 12 12 13 13 12 12 13 13 13 13 13 12 13 13 12 13 13 13 13 13 13 13 13 12 12 11 10 9 9 8 8 7 7 7 7 7 7 6 6 6 5 5 5 4 4 4 4 4 3 3 3 2 2 2 1 1 1 2 2 2 2 2 1 1 -0 -0 -1 -1 -0 -0
11 11 12 12 12 13 13 13 13 12 13 13 13 13 12 12 13 13 13 13 13 13 13 12 12 12 12 11 10 10 9 9 8 8 7 7 7 7 7 7 7 6 6 5 5 5 4 4 4 3 4 3 3 3 2 2 2 1 1 1 1 1 2 2 2 2 1 0 -0 -1 -1 -1 -1 -1
11 11 12 12 12 13 13 13 12 12 12 13 13 13 13 13 13 13 13 12 12 12 12 11 11 10 10 10 9 8 8 8 8 8 8 7 7 7 7 7 6 6 5 5 4 4 4 4 3 3 3 3 3 2 2 1 1 1 1 1 1 1 2 2 2 1 1 -0 -0 -1 -1 -1 -1 -1
11 11 12 11 12 13 13 13 13 12 12 13 13 13 13 13 13 13 13 12 12 11 11 10 10 9 9 9 9 9 8 8 7 7 7 7 7 7 7 6 6 5 5 4 4 4 4 4 3 3 3 3 2 1 1 1 1 0 0 1 1 1 1 1 1 1 0 -0 -0 -0 -1 -1 -1 -1
11 11 11 11 11 12 12 12 12 12 12 13 13 14 14 13 13 13 13 12 12 11 10 10 10 9 9 9 9 8 8 7 7 7 6 6 7 6 6 5 5 5 4 4 4 4 4 4 4 3 3 2 2 1 1 1 1 0 0 1 1 1 1 1 1 1 0 -0 -0 -0 -1 -1 -1 -2
11 11 11 11 11 10 11 12 12 12 13 13 14 14 14 14 14 13 12 12 11 11 10 10 9 9 8 8 8 7 7 6 6 6 6 6 6 6 5 5 4 4 4 4 4 4 3 3 3 3 3 2 2 1 0 0 0 1 0 1 1 1 1 1 1 1 0 0 -0 -0 -1 -1 -2 -2
11 11 11 10 10 10 11 11 12 12 12 13 13 13 14 14 14 13 12 11 11 11 10 10 9 8 8 7 7 6 6 6 5 5 5 6 5 5 4 4 4 4 4 3 3 3 3 3 3 3 2 2 2 2 1 0 0 0 0 0 0 1 1 1 1 1 1 0 -0 -1 -1 -2 -2 -3
11 11 11 10 10 11 11 10 10 11 11 11 12 13 13 13 13 13 12 12 11 10 10 9 8 8 7 7 6 5 5 5 5 5 5 5 4 4 4 4 3 3 3 3 3 3 3 3 2 2 2 2 2 2 2 1 1 1 0 -0 -0 0 0 0 0 0 0 -0 -1 -1 -2 -2 -3 -3
11 11 11 10 10 10 10 10 10 10 10 11 12 12 12 13 13 12 12 11 11 10 9 9 8 7 6 6 5 5 5 5 5 4 4 4 4 4 3 3 3 3 3 3 3 3 3 2 2 2 1 1 1 1 1 1 1 1 1 0 -0 -1 -1 -1 -0 -0 -0 -1 -1 -2 -2 -2 -3 -3
11 10 10 9 9 9 10 10 10 10 10 11 12 12 12 12 12 12 12 11 10 10 8 8 7 6 6 5 5 5 4 4 4 4 4 3 3 3 3 3 3 3 3 3 2 2 2 2 1 1 1 1 1 0 0 0 0 1 1 1 -0 -1 -1 -1 -1 -1 -1 -1 -1 -2 -3 -3 -3 -3
10 9 9 9 9 10 10 10 9 9 10 11 11 11 11 11 11 11 11 10 10 9 8 7 7 6 5 4 4 4 4 4 4 4 4 3 3 3 3 3 2 2 2 2 2 2 1 1 1 0 0 0 -0 -0 -0 -1 -1 -1 -1 -0 -1 -1 -1 -1 -1 -1 -1 -1 -2 -2 -3 -3 -3 -4
9 9 9 9 9 8 8 8 8 8 9 10 10 10 10 11 10 10 10 10 9 8 7 6 6 5 4 4 4 4 4 4 4 4 3 3 2 2 2 2 2 2 2 1 1 1 1 1 0 0 -0 -0 -1 -1 -1 -1 -1 -1 -2 -2 -2 -2 -2 -2 -2 -2 -2 -2 -2 -2 -3 -3 -3 -4
10 9 8 8 8 7 6 7 7 8 8 9 9 9 9 9 9 9 9 9 9 8 7 6 5 5 4 4 4 4 4 4 4 3 3 2 2 2 2 2 2 1 1 1 1 1 0 0 0 -0 -0 -1 -1 -1 -2 -2 -2 -2 -2 -2 -2 -3 -3 -3 -3 -3 -3 -2 -2 -2 -3 -3 -3 -4
9 9 8 7 7 6 5 6 6 7 7 7 8 8 8 8 8 8 8 7 7 6 6 5 5 4 4 4 4 4 4 3 3 3 2 2 2 1 1 1 1 1 0 0 0 0 -0 -0 -0 -0 -1 -1 -1 -2 -2 -3 -3 -3 -3 -2 -2 -3 -3 -3 -3 -3 -3 -3 -2 -2 -2 -3 -4 -4
9 8 7 6 6 5 5 6 6 6 6 6 7 7 7 7 7 7 6 6 6 6 5 5 5 4 4 4 4 3 3 3 3 2 2 2 1 1 1 1 0 -0 -0 -0 -0 -0 -1 -1 -1 -1 -1 -1 -1 -2 -2 -3 -3 -4 -4 -3 -3 -2 -3 -3 -4 -4 -4 -4 -3 -3 -2 -3 -4 -4
7 6 6 5 4 5 5 5 5 6 6 6 7 6 6 6 6 5 5 5 5 5 5 4 4 4 4 4 3 3 3 3 2 2 2 1 1 1 0 0 -0 -0 -0 -0 -0 -0 -0 -0 -0 -1 -1 -1 -1 -2 -3 -3 -4 -4 -4 -4 -4 -3 -3 -3 -4 -4 -4 -4 -4 -4 -3 -3 -4 -4
5 4 4 3 3 4 4 4 4 5 5 6 6 5 5 4 4 4 4 4 4 4 4 4 4 4 4 3 3 3 2 2 2 2 1 1 1 1 0 0 0 -0 -0 -0 -0 -0 -0 -0 0 -0 -0 -0 -1 -2 -3 -4 -5 -4 -3 -3 -4 -4 -3 -3 -4 -4 -4 -4 -4 -4 -4 -4 -4 -4
4 2 3 3 3 3 3 3 4 4 5 5 5 4 4 4 4 4 4 4 4 4 3 3 3 3 3 3 2 2 2 2 1 1 1 1 1 1 1 0 0 0 -0 -0 -0 -0 -0 -0 0 0 0 0 -0 -1 -3 -4 -5 -5 -4 -3 -4 -4 -4 -3 -4 -4 -4 -4 -4 -5 -5 -5 -4 -5
3 2 2 2 3 3 3 3 3 3 4 4 4 4 4 3 3 3 3 3 3 3 3 3 3 3 2 2 2 2 1 1 1 1 1 1 1 0 0 0 0 -0 -0 -0 -1 -0 -0 -0 -0 -0 -0 0 0 -0 -2 -3 -5 -7 -6 -6 -5 -5 -5 -5 -4 -4 -5 -5 -5 -5 -5 -5 -5 -5
2 1 1 2 2 2 2 2 2 3 3 3 3 3 3 3 2 2 2 2 3 3 3 3 3 2 2 2 2 1 1 1 1 1 1 0 0 0 0 -0 -0 -0 -1 -1 -1 -1 -1 -1 -1 -1 -0 -1 -1 -1 -1 -2 -4 -6 -7 -7 -7 -6 -6 -6 -5 -5 -5 -6 -5 -5 -5 -5 -4 -5
0 0 1 1 1 1 1 1 2 2 2 2 2 2 2 2 2 2 2 2 2 3 3 2 2 2 2 2 1 1 1 1 1 0 0 0 0 -0 -0 -0 -1 -1 -1 -1 -1 -1 -1 -1 -1 -1 -1 -1 -2 -2 -2 -2 -3 -4 -6 -7 -7 -6 -6 -6 -6 -6 -6 -7 -6 -6 -5 -4 -4 -4
-1 -0 -0 -0 -0 -0 -0 -0 0 1 1 2 2 2 2 3 3 3 2 2 2 2 2 2 2 2 2 2 1 1 1 0 0 0 0 -0 -0 -0 -1 -1 -1 -1 -1 -1 -2 -2 -2 -2 -1 -1 -1 -2 -2 -2 -2 -2 -3 -4 -5 -5 -6 -6 -6 -7 -7 -7 -7 -7 -7 -6 -6 -6 -5 -5
-2 -2 -2 -2 -1 -1 -1 -1 -1 0 1 1 1 1 2 3 3 2 2 2 2 2 2 2 2 2 2 1 1 1 0 0 0 -0 -0 -0 -0 -1 -1 -1 -1 -1 -1 -2 -2 -2 -2 -2 -2 -2 -2 -2 -3 -3 -3 -3 -3 -3 -4 -4 -5 -6 -6 -6 -7 -7 -7 -7 -7 -7 -7 -7 -7 -6
-2 -2 -2 -2 -2 -2 -2 -1 -1 -0 0 1 1 1 1 2 2 2 2 2 2 2 2 2 2 1 1 1 1 0 0 0 0 -0 -0 -0 -0 -1 -1 -1 -1 -1 -2 -2 -2 -2 -2 -2 -2 -2 -3 -3 -3 -4 -4 -4 -4 -4 -3 -3 -4 -4 -5 -6 -6 -6 -6 -6 -6 -7 -8 -8 -8 -8
-2 -2 -2 -2 -2 -2 -1 -1 -1 -0 -0 0 1 1 1 2 2 2 2 2 2 2 2 2 1 1 1 1 0 0 0 0 0 -0 -0 -0 -1 -1 -1 -1 -1 -2 -2 -2 -2 -2 -2 -2 -3 -3 -3 -4 -4 -4 -5 -5 -5 -5 -5 -4 -3 -3 -3 -4 -4 -5 -5 -6 -5 -6 -7 -7 -8 -8
-2 -2 -1 -1 -1 -1 -1 -1 -1 -0 -0 0 0 1 1 2 2 2 2 2 2 2 2 1 1 1 1 1 0 0 0 0 -0 -0 -0 -1 -1 -1 -1 -1 -1 -2 -2 -2 -3 -3 -3 -3 -3 -3 -4 -4 -5 -5 -5 -6 -6 -6 -6 -5 -5 -4 -3 -3 -3 -3 -4 -4 -4 -4 -4 -5 -6 -6
-2 -2 -1 -1 -1 -1 -1 -1 -1 -0 -0 0 0 1 1 1 1 1 2 2 2 2 1 1 1 1 1 0 0 0 0 -0 -0 -1 -1 -1 -1 -1 -1 -1 -2 -2 -2 -3 -3 -3 -3 -3 -3 -3 -4 -5 -5 -5 -6 -7 -6 -6 -6 -6 -6 -5 -5 -4 -4 -3 -3 -3 -4 -4 -4 -4 -5 -5
Height
1509 1511 1514 1517 1519 1522 1525 1528 1531 1534 1536 1539 1541 1543 1545 1547 1549 1550 1552 1553 1554 1555 1558 1560 1562 1564 1565 1566 1568 1569 1571 1572 1573 1574 1575 1575 1575 1575 1576 1575 1575 1575 1575 1575 1574 1573 1571 1570 1569 1568 1567 1566 1566 1565 1563 1562 1561 1560 1559 1558 1557 1556 1555 1553 1552 1551 1549 1547 1544 1542 1540 1538 1536 1533
1505 1507 1510 1513 1516 1519 1522 1524 1527 1531 1533 1536 1538 1540 1543 1544 1546 1546 1548 1550 1551 1552 1555 1558 1560 1562 1563 1564 1566 1568 1569 1570 1572 1573 1573 1573 1573 1573 1573 1573 1573 1573 1573 1573 1573 1572 1570 1569 1568 1567 1566 1566 1565 1564 1563 1561 1561 1560 1558 1557 1556 1555 1554 1553 1551 1550 1547 1545 1543 1541 1539 1537 1534 1532
1501 1503 1506 1510 1512 1515 1518 1521 1524 1527 1530 1532 1534 1537 1539 1541 1543 1544 1546 1547 1548 1550 1553 1556 1558 1560 1562 1563 1564 1566 1567 1569 1570 1571 1572 1572 1572 1572 1572 1571 1571 1572 1572 1572 1571 1570 1569 1568 1567 1566 1565 1565 1564 1563 1562 1561 1560 1559 1557 1556 1555 1554 1553 1552 1550 1548 1546 1544 1541 1539 1537 1535 1533 1531
1496 1499 1502 1506 1509 1512 1515 1517 1520 1524 1526 1529 1531 1533 1536 1538 1540 1542 1544 1545 1546 1548 1551 1554 1557 1559 1560 1561 1563 1564 1565 1567 1568 1569 1570 1570 1570 1570 1570 1570 1570 1570 1570 1570 1569 1568 1567 1566 1565 1565 1564 1563 1563 1562 1561 1560 1559 1558 1556 1555 1554 1553 1551 1550 1548 1546 1544 1542 1540 1538 1536 1534 1532 1530
1491 1494 1497 1502 1506 1508 1511 1513 1516 1520 1523 1525 1527 1530 1532 1534 1537 1539 1541 1542 1544 1546 1548 1552 1555 1557 1558 1560 1561 1563 1564 1565 1566 1567 1568 1568 1569 1569 1568 1568 1568 1568 1569 1568 1567 1566 1565 1565 1564 1563 1562 1562 1561 1561 1560 1559 1558 1557 1555 1554 1553 1551 1550 1548 1546 1544 1542 1540 1538 1537 1535 1533 1531 1529
1486 1489 1492 1497 1501 1504 1507 1509 1512 1516 1519 1521 1523 1525 1528 1531 1533 1536 1538 1540 1541 1543 1546 1548 1552 1555 1557 1558 1559 1561 1562 1563 1564 1565 1565 1566 1567 1567 1566 1566 1566 1567 1567 1566 1565 1564 1564 1563 1562 1561 1561 1560 1560 1559 1559 1558 1557 1556 1555 1553 1552 1550 1548 1546 1544 1543 1541 1539 1537 1535 1533 1531 1530 1528
1481 1483 1487 1491 1496 1499 1502 1505 1508 1512 1515 1517 1519 1521 1524 1527 1530 1532 1535 1536 1538 1540 1543 1545 1548 1551 1553 1555 1557 1559 1561 1561 1562 1563 1564 1564 1565 1565 1564 1564 1565 1565 1565 1564 1563 1563 1562 1562 1561 1560 1559 1559 1559 1558 1557 1557 1556 1555 1554 1552 1550 1548 1546 1544 1543 1541 1540 1538 1536 1533 1531 1530 1528 1526
1475 1478 1482 1486 1490 1494 1497 1500 1504 1507 1510 1513 1515 1517 1520 1523 1526 1529 1532 1533 1534 1536 1539 1543 1545 1547 1550 1553 1555 1556 1557 1559 1560 1561 1562 1562 1563 1563 1562 1563 1563 1563 1562 1562 1561 1561 1560 1560 1559 1559 1558 1557 1557 1557 1556 1556 1555 1554 1552 1551 1549 1547 1545 1543 1542 1540 1538 1536 1534 1532 1530 1528 1527 1524
1469 1473 1478 1482 1486 1489 1492 1496 1499 1503 1506 1508 1511 1513 1516 1519 1523 1527 1529 1529 1530 1533 1537 1540 1542 1545 1547 1550 1552 1553 1554 1556 1558 1559 1559 1560 1560 1560 1560 1561 1561 1561 1560 1560 1559 1559 1559 1558 1558 1557 1557 1556 1556 1555 1555 1555 1554 1553 1551 1549 1548 1546 1544 1542 1541 1539 1537 1534 1532 1530 1528 1527 1524 1522
1464 1468 1473 1478 1482 1484 1487 1491 1494 1498 1501 1504 1507 1510 1513 1516 1519 1522 1525 1526 1527 1530 1534 1537 1539 1541 1544 1546 1549 1550 1552 1554 1555 1556 1557 1557 1558 1558 1558 1559 1559 1559 1559 1558 1558 1558 1557 1557 1557 1556 1556 1555 1555 1554 1554 1553 1552 1551 1550 1548 1546 1544 1543 1541 1539 1537 1535 1533 1531 1529 1527 1525 1522 1520
1460 1463 1467 1472 1476 1479 1482 1487 1490 1494 1497 1501 1503 1506 1510 1513 1515 1517 1520 1522 1524 1527 1530 1533 1535 1537 1540 1543 1545 1547 1550 1552 1553 1553 1554 1554 1555 1555 1556 1557 1557 1557 1557 1556 1556 1556 1556 1556 1556 1555 1555 1554 1554 1553 1552 1552 1551 1550 1548 1547 1545 1543 1541 1540 1538 1536 1534 1532 1529 1527 1525 1523 1521 1518
1455 1459 1463 1467 1471 1474 1478 1483 1486 1490 1494 1497 1500 1503 1506 1509 1511 1513 1515 1517 1519 1521 1524 1528 1531 1534 1536 1539 1542 1544 1546 1547 1548 1549 1551 1552 1553 1553 1554 1555 1555 1555 1555 1554 1554 1554 1554 1554 1554 1554 1554 1553 1552 1552 1551 1550 1549 1548 1547 1545 1544 1542 1540 1539 1537 1535 1533 1530 1528 1525 1523 1521 1519 1516
1451 1455 1459 1462 1466 1470 1475 1479 1483 1487 1491 1494 1497 1500 1502 1505 1506 1509 1511 1512 1514 1517 1521 1525 1528 1530 1532 1534 1536 1539 1540 1542 1544 1545 1547 1549 1550 1551 1552 1552 1553 1553 1553 1553 1553 1553 1553 1553 1553 1553 1553 1552 1551 1550 1550 1549 1548 1547 1545 1544 1542 1541 1539 1538 1536 1534 1531 1528 1526 1524 1521 1519 1516 1514
1446 1450 1454 1458 1463 1468 1472 1476 1480 1484 1488 1491 1494 1497 1499 1500 1502 1504 1506 1508 1511 1515 1519 1522 1524 1526 1528 1530 1532 1534 1537 1539 1541 1543 1544 1546 1547 1548 1549 1550 1550 1551 1551 1551 1551 1551 1552 1552 1552 1552 1551 1551 1550 1549 1548 1547 1546 1545 1544 1543 1541 1540 1538 1536 1534 1532 1529 1527 1524 1522 1519 1517 1515 1512
1441 1446 1450 1455 1460 1465 1469 1473 1477 1481 1484 1488 1491 1493 1495 1497 1498 1500 1502 1506 1511 1515 1517 1518 1520 1522 1525 1527 1530 1532 1534 1536 1538 1540 1541 1543 1545 1546 1547 1548 1548 1549 1549 1549 1550 1550 1550 1551 1550 1550 1550 1549 1549 1548 1547 1546 1545 1544 1543 1541 1540 1539 1537 1535 1533 1530 1527 1525 1522 1520 1517 1515 1512 1510
1437 1442 1446 1450 1456 1461 1465 1469 1473 1476 1480 1483 1487 1490 1493 1494 1496 1498 1499 1502 1506 1509 1510 1513 1517 1520 1523 1526 1528 1530 1532 1534 1536 1537 1539 1541 1543 1544 1545 1546 1546 1547 1547 1548 1548 1549 1549 1549 1549 1549 1549 1548 1547 1547 1546 1545 1544 1542 1541 1540 1539 1537 1536 1534 1531 1528 1526 1523 1521 1518 1515 1513 1510 1507
1432 1437 1441 1446 1451 1456 1460 1464 1468 1472 1476 1479 1483 1487 1489 1491 1494 1496 1497 1499 1502 1503 1506 1511 1515 1518 1521 1523 1525 1527 1529 1531 1533 1535 1537 1539 1541 1542 1543 1543 1544 1545 1546 1546 1547 1547 1548 1548 1548 1548 1547 1547 1546 1545 1544 1543 1542 1541 1540 1538 1537 1536 1534 1532 1529 1527 1524 1522 1519 1516 1513 1510 1508 1505
1428 1432 1437 1442 1447 1451 1456 1459 1463 1468 1472 1475 1479 1482 1485 1489 1492 1493 1495 1499 1502 1504 1507 1511 1513 1516 1518 1520 1523 1526 1527 1529 1532 1534 1536 1538 1539 1540 1540 1541 1542 1543 1544 1545 1545 1546 1546 1546 1547 1546 1546 1546 1545 1544 1543 1542 1541 1540 1538 1537 1536 1534 1532 1530 1527 1525 1522 1520 1517 1514 1511 1508 1505 1503
1425 1429 1433 1439 1444 1448 1451 1455 1459 1463 1466 1469 1474 1477 1481 1486 1489 1491 1493 1497 1501 1503 1507 1509 1512 1515 1518 1520 1522 1524 1526 1528 1531 1533 1535 1536 1537 1538 1538 1539 1540 1541 1543 1544 1544 1545 1545 1545 1545 1544 1544 1544 1543 1542 1541 1540 1539 1538 1537 1536 1534 1532 1531 1528 1526 1524 1521 1518 1515 1512 1509 1506 1503 1500
1422 1427 1431 1436 1442 1445 1448 1452 1456 1459 1462 1466 1470 1473 1478 1482 1485 1488 1491 1495 1499 1503 1506 1509 1512 1515 1517 1519 1521 1523 1525 1527 1529 1531 1533 1534 1534 1535 1536 1537 1538 1539 1541 1542 1543 1543 1543 1544 1543 1543 1543 1543 1542 1541 1540 1539 1538 1537 1535 1534 1533 1531 1529 1527 1525 1522 1519 1516 1513 1510 1507 1504 1501 1498
1420 1425 1428 1434 1439 1442 1446 1449 1452 1456 1459 1464 1468 1472 1475 1479 1482 1486 1490 1494 1498 1501 1504 1506 1509 1512 1515 1517 1519 1521 1523 1526 1528 1530 1531 1532 1532 1533 1534 1535 1536 1538 1540 1541 1541 1541 1541 1542 1542 1542 1542 1542 1541 1539 1539 1538 1537 1535 1534 1533 1531 1529 1528 1526 1523 1521 1518 1515 1512 1509 1505 1502 1498 1495
1416 1422 1426 1431 1435 1438 1443 1447 1449 1454 1458 1461 1465 1469 1472 1476 1480 1484 1488 1491 1494 1497 1500 1503 1506 1510 1513 1515 1517 1520 1522 1525 1527 1528 1529 1530 1530 1531 1532 1534 1535 1537 1538 1539 1540 1540 1540 1540 1541 1541 1540 1540 1539 1538 1537 1536 1535 1534 1532 1531 1530 1528 1526 1524 1522 1519 1516 1513 1510 1507 1504 1500 1496 1492
1415 1420 1423 1428 1432 1436 1442 1446 1449 1453 1456 1459 1462 1466 1469 1473 1478 1482 1485 1487 1490 1493 1497 1501 1504 1508 1511 1513 1516 1519 1521 1523 1525 1526 1527 1528 1529 1530 1531 1532 1534 1535 1536 1537 1538 1538 1538 1538 1539 1539 1539 1538 1538 1537 1536 1535 1534 1533 1531 1530 1528 1526 1525 1523 1521 1518 1515 1512 1509 1505 1502 1498 1494 1490
1412 1417 1421 1425 1430 1435 1441 1444 1447 1450 1453 1456 1459 1463 1467 1471 1474 1478 1482 1485 1488 1492 1495 1499 1503 1506 1509 1512 1514 1517 1519 1521 1523 1524 1525 1526 1527 1528 1529 1531 1532 1534 1535 1535 1536 1537 1537 1537 1537 1537 1537 1537 1537 1537 1536 1534 1533 1532 1530 1528 1526 1525 1524 1522 1520 1517 1514 1510 1507 1503 1500 1496 1493 1488
1408 1413 1418 1423 1428 1433 1437 1440 1443 1446 1451 1454 1457 1460 1464 1469 1472 1476 1480 1484 1488 1491 1495 1498 1501 1504 1507 1510 1513 1515 1518 1520 1521 1522 1523 1524 1525 1527 1528 1529 1531 1532 1534 1534 1535 1535 1536 1536 1536 1536 1535 1535 1535 1535 1535 1533 1532 1530 1528 1526 1524 1523 1522 1520 1518 1516 1512 1509 1505 1501 1498 1495 1492 1488
1406 1411 1415 1420 1425 1430 1433 1437 1441 1445 1450 1455 1457 1460 1463 1467 1471 1475 1478 1482 1486 1490 1493 1497 1500 1502 1505 1508 1511 1514 1516 1518 1519 1521 1522 1523 1524 1525 1527 1528 1530 1531 1532 1533 1533 1534 1534 1535 1535 1534 1534 1534 1534 1533 1533 1532 1531 1529 1527 1525 1522 1520 1519 1518 1516 1514 1510 1507 1503 1500 1497 1494 1491 1488
1404 1409 1413 1418 1423 1427 1432 1437 1441 1446 1450 1455 1458 1460 1463 1466 1469 1473 1476 1480 1484 1488 1492 1495 1498 1501 1504 1507 1510 1513 1516 1517 1518 1519 1520 1522 1523 1524 1526 1527 1529 1530 1531 1532 1532 1533 1533 1533 1534 1533 1533 1532 1532 1532 1531 1530 1529 1528 1526 1524 1521 1519 1517 1515 1514 1511 1508 1505 1501 1498 1495 1493 1490 1487
1403 1408 1412 1418 1423 1427 1432 1437 1441 1445 1449 1453 1456 1459 1462 1465 1468 1471 1475 1479 1482 1486 1490 1493 1496 1500 1504 1507 1510 1513 1515 1516 1517 1517 1519 1521 1522 1524 1525 1527 1528 1529 1530 1530 1531 1531 1532 1532 1532 1532 1531 1531 1530 1530 1529 1528 1527 1525 1524 1522 1521 1518 1516 1514 1511 1509 1507 1503 1500 1496 1493 1490 1487 1484
1405 1409 1414 1419 1423 1426 1430 1435 1440 1444 1448 1451 1455 1458 1461 1465 1468 1471 1474 1478 1481 1485 1489 1492 1496 1500 1503 1507 1510 1512 1513 1514 1515 1516 1518 1520 1522 1523 1525 1526 1527 1528 1529 1529 1530 1530 1531 1531 1530 1530 1529 1529 1529 1528 1527 1526 1524 1523 1521 1520 1519 1517 1515 1512 1509 1507 1504 1502 1499 1495 1492 1489 1485 1482
1407 1412 1416 1419 1422 1426 1430 1434 1439 1444 1447 1451 1455 1458 1462 1465 1468 1472 1475 1477 1481 1484 1488 1492 1496 1499 1503 1506 1509 1510 1512 1513 1514 1516 1517 1519 1521 1523 1524 1525 1526 1527 1528 1529 1529 1529 1529 1529 1529 1528 1527 1527 1527 1526 1525 1524 1522 1521 1519 1517 1516 1514 1513 1510 1508 1505 1502 1500 1498 1495 1492 1489 1486 1483
1407 1412 1417 1420 1423 1427 1432 1437 1441 1444 1447 1451 1454 1458 1462 1466 1469 1473 1476 1478 1482 1485 1488 1492 1496 1499 1502 1505 1507 1509 1511 1512 1514 1516 1517 1519 1521 1523 1524 1525 1525 1526 1527 1528 1528 1529 1528 1528 1527 1527 1526 1526 1525 1524 1523 1522 1520 1519 1518 1516 1514 1512 1509 1508 1505 1503 1500 1498 1497 1494 1491 1488 1485 1482
1407 1411 1415 1420 1425 1429 1434 1438 1441 1444 1447 1450 1454 1458 1462 1466 1469 1473 1476 1479 1483 1486 1489 1492 1495 1498 1501 1503 1505 1507 1509 1511 1513 1515 1517 1519 1521 1522 1523 1524 1524 1525 1526 1527 1527 1528 1527 1527 1526 1525 1525 1524 1523 1522 1522 1520 1519 1517 1517 1515 1513 1511 1508 1505 1503 1501 1499 1496 1494 1493 1491 1488 1484 1481
1407 1411 1415 1420 1425 1430 1434 1438 1440 1443 1447 1451 1455 1459 1462 1466 1470 1473 1476 1480 1483 1486 1489 1492 1495 1497 1500 1502 1504 1506 1508 1510 1512 1514 1517 1519 1520 1521 1522 1523 1524 1525 1526 1527 1527 1527 1527 1527 1526 1525 1524 1523 1522 1521 1520 1520 1518 1517 1515 1513 1512 1509 1507 1504 1502 1499 1497 1494 1492 1491 1489 1487 1484 1480
1408 1413 1417 1422 1427 1431 1434 1437 1439 1442 1447 1451 1454 1459 1463 1466 1470 1474 1477 1481 1484 1487 1490 1492 1494 1497 1499 1501 1503 1505 1507 1510 1512 1514 1516 1518 1519 1521 1522 1523 1524 1525 1526 1526 1527 1527 1527 1526 1526 1525 1524 1522 1521 1520 1519 1519 1518 1516 1514 1511 1509 1507 1505 1503 1500 1498 1496 1494 1491 1488 1487 1485 1483 1479
1411 1415 1418 1423 1428 1432 1435 1438 1440 1443 1447 1451 1454 1458 1463 1467 1471 1474 1478 1481 1484 1487 1489 1492 1494 1496 1498 1500 1502 1505 1507 1509 1511 1514 1516 1518 1519 1520 1522 1523 1524 1525 1525 1526 1526 1526 1526 1525 1525 1524 1523 1521 1520 1519 1518 1517 1516 1514 1512 1509 1507 1504 1503 1501 1499 1497 1495 1493 1491 1487 1484 1482 1480 1478
1415 1419 1420 1424 1429 1433 1437 1440 1443 1445 1448 1452 1455 1458 1462 1467 1472 1475 1479 1482 1485 1487 1489 1491 1493 1495 1497 1500 1502 1505 1507 1509 1512 1514 1516 1517 1519 1520 1522 1523 1524 1524 1525 1525 1525 1525 1525 1524 1523 1523 1522 1521 1519 1518 1516 1515 1514 1512 1510 1507 1505 1502 1501 1499 1498 1496 1494 1492 1490 1487 1483 1480 1478 1475
1418 1423 1425 1427 1430 1435 1439 1443 1446 1448 1451 1454 1457 1460 1463 1467 1472 1476 1479 1482 1485 1488 1490 1491 1492 1494 1497 1500 1502 1505 1507 1510 1512 1514 1515 1517 1518 1519 1521 1522 1523 1523 1524 1525 1525 1524 1524 1523 1522 1521 1521 1520 1518 1516 1515 1514 1512 1510 1507 1505 1503 1501 1499 1497 1496 1495 1493 1491 1489 1486 1483 1479 1477 1474
1423 1427 1429 1431 1433 1438 1443 1447 1449 1451 1453 1456 1459 1462 1465 1468 1472 1476 1479 1483 1486 1488 1490 1491 1492 1494 1497 1500 1503 1505 1508 1510 1512 1513 1515 1516 1517 1518 1520 1521 1522 1522 1523 1524 1524 1523 1522 1522 1521 1520 1519 1518 1517 1515 1513 1512 1511 1509 1506 1504 1502 1500 1498 1496 1494 1493 1491 1489 1487 1485 1483 1479 1476 1473
1431 1433 1434 1436 1439 1444 1448 1450 1451 1453 1455 1459 1461 1464 1466 1469 1472 1476 1479 1482 1485 1488 1490 1491 1493 1495 1498 1500 1503 1506 1508 1510 1511 1513 1514 1515 1516 1517 1518 1520 1521 1522 1522 1522 1522 1522 1521 1520 1519 1518 1517 1516 1515 1514 1512 1511 1510 1509 1507 1504 1502 1499 1497 1495 1493 1491 1489 1487 1485 1482 1480 1478 1475 1472
1436 1436 1438 1440 1444 1448 1451 1452 1453 1455 1458 1461 1464 1466 1467 1470 1473 1476 1479 1482 1485 1487 1489 1492 1494 1496 1498 1501 1503 1506 1508 1509 1511 1512 1513 1514 1515 1516 1518 1519 1520 1521 1521 1521 1521 1521 1520 1519 1518 1517 1516 1515 1514 1513 1512 1510 1509 1508 1507 1505 1502 1499 1497 1495 1492 1490 1488 1486 1483 1480 1477 1474 1471 1468
1436 1437 1439 1443 1446 1449 1451 1453 1455 1457 1460 1463 1466 1468 1469 1471 1474 1476 1479 1482 1485 1487 1489 1492 1494 1497 1499 1501 1503 1505 1507 1509 1510 1511 1512 1514 1515 1516 1517 1518 1519 1519 1520 1520 1520 1519 1518 1517 1516 1515 1514 1513 1512 1511 1510 1509 1507 1506 1505 1503 1501 1499 1497 1495 1493 1490 1488 1485 1482 1478 1475 1472 1468 1465
1435 1437 1440 1443 1446 1449 1451 1453 1456 1459 1462 1465 1467 1469 1471 1473 1475 1477 1480 1482 1485 1487 1490 1492 1495 1497 1499 1501 1503 1505 1507 1508 1509 1511 1512 1513 1514 1515 1516 1517 1518 1518 1519 1519 1519 1518 1517 1516 1515 1513 1512 1511 1510 1509 1509 1508 1506 1504 1503 1501 1500 1499 1497 1495 1493 1491 1488 1485 1482 1478 1474 1471 1467 1463
1436 1438 1441 1444 1446 1449 1452 1455 1457 1460 1464 1467 1469 1471 1472 1474 1476 1478 1481 1483 1485 1488 1490 1493 1495 1497 1499 1501 1503 1504 1506 1508 1509 1510 1511 1512 1513 1514 1515 1516 1516 1517 1518 1518 1517 1516 1515 1514 1513 1512 1511 1510 1509 1508 1507 1506 1505 1503 1501 1500 1498 1497 1496 1495 1493 1491 1489 1486 1484 1481 1477 1472 1468 1464
1438 1440 1442 1445 1447 1450 1453 1456 1459 1462 1465 1468 1470 1472 1474 1475 1477 1479 1481 1483 1486 1488 1490 1493 1495 1497 1499 1501 1502 1504 1505 1507 1508 1509 1510 1511 1512 1513 1514 1515 1515 1516 1516 1516 1516 1514 1513 1513 1512 1511 1510 1508 1507 1506 1505 1505 1504 1503 1501 1499 1497 1495 1494 1494 1492 1491 1489 1487 1484 1482 1479 1476 1472 1469
1441 1443 1445 1447 1449 1452 1455 1458 1460 1463 1466 1468 1471 1473 1474 1476 1478 1480 1482 1484 1486 1488 1491 1493 1495 1497 1498 1500 1502 1503 1505 1506 1508 1508 1509 1510 1511 1512 1513 1514 1514 1515 1515 1515 1514 1513 1512 1511 1510 1509 1508 1507 1506 1505 1504 1503 1503 1501 1500 1498 1496 1494 1493 1492 1490 1489 1487 1485 1483 1480 1478 1475 1472 1470
Wind_Speed
46 48 48 48 47 45 43 41 39 36 35 35 33 30 29 31 35 33 31 32 33 33 32 30 30 28 26 26 29 29 26 25 23 21 21 19 18 18 18 18 18 16 15 14 15 17 19 20 19 18 18 17 17 17 17 17 16 16 16 17 19 20 21 22 23 24 24 24 25 26 27 29 30 31
47 48 48 48 48 45 43 42 40 38 36 37 37 34 30 30 34 37 36 35 35 35 33 31 30 28 27 28 30 29 27 25 24 22 22 21 20 19 19 19 18 16 15 14 16 18 20 20 19 18 17 17 17 17 17 17 16 16 17 18 19 21 22 23 23 23 23 24 26 27 28 29 30 31
48 49 49 48 47 45 44 43 41 39 37 38 39 37 33 32 33 36 36 35 34 35 34 32 30 28 28 30 31 30 28 26 25 24 23 22 21 20 19 19 18 17 15 16 18 19 20 20 19 18 18 17 16 16 17 17 16 17 18 19 20 22 23 23 22 23 24 25 26 28 28 29 30 31
50 51 49 47 46 46 45 44 43 40 39 39 40 39 37 35 34 36 38 36 34 34 33 33 30 27 29 31 31 31 30 28 26 26 25 23 22 21 20 20 19 17 16 18 19 20 21 20 19 18 18 17 16 16 16 16 16 17 19 20 21 22 23 22 22 23 24 26 27 28 28 29 30 30
53 54 52 47 46 46 46 46 45 42 40 41 41 41 40 39 37 37 39 39 36 34 33 32 30 28 29 31 32 31 31 30 29 28 26 24 22 22 21 20 19 18 18 19 20 20 20 20 18 18 17 17 16 15 16 16 17 18 19 20 21 22 22 22 22 23 25 26 27 28 28 29 30 30
56 57 55 49 46 47 47 48 46 43 42 43 44 43 43 41 40 39 40 41 40 37 34 32 32 30 30 31 32 33 32 31 31 29 27 25 23 22 21 20 19 18 19 19 19 19 19 18 18 17 17 16 15 15 16 16 18 19 20 20 21 22 22 22 23 24 25 25 26 27 29 29 29 30
57 57 56 51 47 48 49 49 47 44 44 45 45 46 45 43 43 42 42 44 44 41 37 33 33 33 32 32 33 34 32 31 31 29 27 25 23 22 20 19 18 18 19 19 19 18 18 17 17 17 16 16 15 15 16 17 18 19 20 21 22 22 22 22 23 23 24 25 27 28 29 29 30 30
56 57 56 53 49 50 51 50 48 46 46 47 47 46 46 45 45 44 44 47 49 46 39 33 34 35 35 34 35 35 34 32 30 28 26 25 23 20 19 19 18 18 18 19 18 18 17 17 16 16 16 15 16 16 17 18 19 19 20 21 22 22 22 22 22 23 24 26 27 28 29 30 30 30
55 55 54 53 52 52 52 51 49 47 48 49 48 47 47 47 46 44 45 48 50 48 42 35 34 36 35 35 36 36 36 34 31 28 26 25 23 21 20 19 18 18 18 18 18 17 18 17 16 16 15 16 16 17 17 18 19 20 20 21 21 21 21 21 22 23 25 26 27 28 30 30 31 30
55 55 55 55 54 53 53 52 50 49 50 50 49 47 46 46 46 44 45 49 50 48 44 38 35 36 37 37 37 37 36 35 33 30 28 25 23 22 21 19 18 18 18 18 18 18 18 18 16 16 16 16 16 17 18 19 19 20 21 21 21 21 21 21 23 24 25 27 28 29 30 31 31 30
55 57 57 57 56 54 53 52 50 51 51 50 49 48 45 44 45 44 45 49 50 48 46 41 36 36 38 38 39 38 35 33 31 30 29 27 25 24 21 20 19 18 18 18 18 19 19 18 17 16 17 17 17 18 18 19 19 20 21 21 20 20 21 22 23 24 25 27 28 30 30 31 30 30
56 58 59 59 57 54 52 51 51 51 52 50 49 48 45 44 45 46 47 50 51 48 46 43 37 36 38 38 39 38 37 35 33 32 30 27 25 23 21 20 19 18 19 19 19 20 19 18 17 17 17 17 18 18 19 19 20 20 21 21 20 20 21 22 23 24 26 28 29 30 30 30 30 29
56 58 60 60 58 54 52 51 51 50 50 50 49 48 46 44 45 47 49 53 54 49 44 41 38 37 38 40 41 40 40 39 37 35 32 28 24 22 20 19 19 19 19 20 20 20 19 18 17 18 18 18 18 18 19 19 20 21 21 20 20 20 21 22 23 25 27 28 29 30 30 29 29 29
56 58 59 59 57 54 52 51 51 49 49 49 49 48 47 46 46 48 50 54 54 48 43 42 40 40 40 41 42 40 39 39 38 36 33 30 26 23 21 20 20 20 20 20 20 20 19 18 18 18 18 17 17 18 19 19 20 20 20 20 20 20 21 22 24 26 27 28 29 29 29 29 28 29
56 57 59 59 56 53 52 52 50 49 48 49 49 49 47 46 46 47 49 50 50 47 45 45 44 42 41 40 40 38 38 38 37 35 32 29 26 24 22 21 20 19 19 19 19 19 18 17 17 18 17 17 17 18 19 19 20 20 20 20 20 20 21 22 24 26 27 28 28 28 28 28 28 28
56 56 58 59 58 54 52 51 50 48 47 49 49 47 45 45 46 46 46 46 46 47 47 47 44 41 38 37 37 35 35 36 35 34 31 27 25 23 22 20 19 18 18 17 18 18 18 17 16 16 16 17 17 17 18 19 19 20 20 20 20 20 21 23 24 26 27 27 28 28 28 28 28 29
55 55 57 60 60 56 52 50 49 47 47 48 48 45 43 43 44 43 44 45 44 44 44 43 40 38 37 35 33 32 33 34 34 32 28 26 24 23 20 18 18 18 16 16 17 17 18 16 15 16 16 16 17 17 17 18 19 19 19 19 19 20 21 23 24 25 26 27 27 28 28 28 29 29
53 54 55 57 57 54 52 51 48 48 50 50 47 45 43 43 43 42 43 43 40 38 36 36 36 36 34 32 28 29 31 31 29 26 24 23 22 20 18 18 17 16 15 16 17 17 17 15 14 15 15 15 15 16 17 17 17 18 18 18 18 19 21 22 24 25 26 27 27 27 28 29 30 30
52 52 52 52 53 51 50 50 49 50 52 50 47 46 45 45 43 41 41 40 38 35 33 32 31 29 28 27 26 26 27 26 24 22 20 20 19 18 17 16 16 15 15 16 17 16 15 13 13 14 14 13 14 15 15 15 16 16 16 17 18 19 20 22 23 25 26 27 27 28 28 30 31 31
52 50 49 49 49 49 50 50 50 52 52 49 47 48 47 45 43 41 41 39 35 31 28 25 23 22 23 25 24 23 23 23 23 22 21 19 18 17 16 16 16 16 16 16 16 15 14 12 11 13 12 12 13 14 13 14 14 14 15 16 17 19 20 22 24 25 26 27 28 28 29 31 32 32
54 50 49 50 50 49 50 50 50 51 49 45 45 46 46 45 43 42 40 36 30 26 22 21 20 20 21 23 23 22 22 21 21 21 20 18 16 15 15 15 16 16 16 15 14 14 14 11 10 11 11 10 11 12 12 12 13 13 14 15 17 19 20 22 24 25 26 27 28 29 30 31 32 32
55 52 52 53 53 52 51 51 50 48 46 44 44 45 45 45 43 40 37 34 31 27 25 24 23 22 22 23 23 23 22 21 20 19 17 15 14 13 13 14 15 15 15 15 13 13 13 11 9 9 9 9 9 9 10 11 11 12 14 16 17 19 20 22 24 25 26 27 28 29 30 31 32 32
55 56 56 55 56 56 55 54 52 48 47 46 45 44 44 43 40 38 37 36 35 32 29 28 27 25 23 23 23 22 21 19 18 16 14 13 12 12 12 13 13 14 15 14 13 12 11 10 9 8 7 8 9 7 9 11 12 12 14 16 18 19 20 22 23 25 26 28 29 30 30 31 31 31
55 57 57 56 54 52 53 55 54 51 50 48 46 45 43 41 40 40 38 36 35 33 31 30 28 25 24 23 21 20 18 16 14 13 12 11 11 12 12 12 12 12 12 12 11 11 10 9 9 7 5 6 8 7 7 11 12 13 15 17 18 20 21 22 23 25 26 28 30 30 30 30 30 30
55 55 55 54 50 47 51 57 57 54 52 49 47 45 40 37 37 39 38 37 35 32 30 28 27 25 24 22 19 17 15 13 12 11 11 11 11 11 11 11 11 10 10 10 9 9 9 9 7 6 5 5 6 7 7 9 12 13 15 18 20 22 23 23 24 25 27 29 30 31 30 28 27 27
54 54 55 54 51 50 53 55 53 50 47 44 41 39 35 33 33 35 36 36 33 30 28 27 26 25 22 19 18 16 14 13 12 11 11 10 10 9 9 9 9 9 9 8 8 8 8 7 6 5 6 7 8 9 10 11 12 13 15 18 21 23 24 25 26 27 28 30 30 30 28 26 25 25
56 56 55 54 53 52 51 49 46 45 43 38 34 33 32 31 32 33 34 33 31 29 28 26 24 22 19 18 17 16 15 14 12 11 10 9 9 9 9 9 8 8 7 7 7 7 6 6 5 5 7 8 9 11 12 14 14 15 15 17 20 23 24 26 27 28 29 30 31 30 28 26 26 25
57 56 54 51 50 49 46 44 44 43 41 35 31 31 32 31 31 31 31 31 30 29 27 25 22 20 19 17 17 16 15 13 11 10 9 9 9 8 8 7 7 6 5 5 5 5 5 5 6 7 8 9 10 12 13 15 16 17 17 17 19 21 23 26 28 29 30 31 31 30 29 28 28 27
48 48 48 47 48 48 47 45 44 42 38 33 31 32 32 30 29 29 29 30 29 27 25 24 22 21 20 18 16 15 14 12 11 10 9 9 8 7 7 6 5 4 3 2 3 4 5 6 7 8 9 10 11 12 14 15 16 18 19 19 19 20 22 25 28 29 30 31 30 29 28 28 28 28
41 43 45 46 47 47 45 43 41 37 34 32 32 32 29 27 27 27 27 27 26 25 25 24 23 22 21 19 17 16 14 12 11 10 9 8 7 7 6 5 4 2 1 2 3 5 6 7 8 9 10 11 12 12 13 14 16 16 18 20 21 21 22 24 27 29 30 31 30 28 27 27 27 27
41 42 43 44 43 41 40 38 36 35 34 34 33 31 28 26 26 25 24 23 23 24 25 25 23 23 21 19 18 16 14 13 12 10 9 8 7 6 5 3 2 1 2 3 5 6 7 9 10 11 11 12 12 12 12 13 15 15 16 18 20 21 23 25 27 28 29 30 30 29 27 27 27 27
44 44 44 41 39 38 37 37 37 37 37 35 33 31 28 27 26 25 23 23 23 24 24 25 24 23 21 19 18 16 14 13 12 11 9 8 7 6 4 3 3 3 4 5 6 7 8 10 11 12 12 12 11 11 10 11 13 16 17 18 19 20 22 25 26 27 29 30 31 30 28 27 27 28
45 45 44 42 41 40 39 39 40 39 37 35 33 31 29 28 27 26 25 25 25 25 25 25 24 23 22 20 18 16 15 14 13 11 9 8 7 6 4 3 3 3 4 5 6 7 7 9 10 11 12 12 11 10 8 8 11 16 19 19 19 20 22 24 25 27 29 30 32 32 29 27 27 27
45 45 44 43 43 43 42 42 41 40 38 36 34 31 29 28 28 27 26 26 26 26 25 24 23 23 21 20 19 17 15 14 13 11 9 8 7 6 4 3 2 1 2 4 5 6 7 8 9 11 12 12 12 9 6 5 9 14 18 19 20 21 23 25 26 27 29 30 31 32 31 29 28 27
46 47 46 45 43 42 41 41 40 39 38 36 35 34 31 29 28 28 28 28 27 27 26 25 23 22 20 19 18 17 15 13 12 11 9 8 6 5 3 2 1 1 3 4 6 7 8 9 11 12 13 14 14 11 8 7 10 14 17 19 22 23 24 26 26 27 28 29 29 30 32 31 30 28
45 46 45 44 41 40 39 38 38 38 37 36 36 35 34 32 30 29 29 28 27 27 26 25 24 22 20 18 17 16 14 12 11 10 8 7 5 4 2 1 1 2 4 5 6 8 10 11 12 14 14 15 16 15 12 11 13 16 19 21 23 24 25 26 26 26 27 28 28 29 31 32 31 30
44 42 41 41 39 37 37 37 36 36 35 35 36 35 35 34 32 30 29 28 27 26 25 24 23 21 19 17 16 14 13 11 9 8 7 5 4 3 1 1 2 4 5 6 7 9 10 12 14 15 15 16 16 17 16 15 15 16 17 19 22 23 24 25 26 26 26 27 27 27 29 30 31 30
39 38 37 37 36 34 34 35 35 34 34 35 35 35 34 34 33 31 29 28 27 26 24 22 21 20 18 16 14 13 11 10 9 7 6 4 3 2 1 2 3 4 5 7 8 10 11 13 14 15 16 17 17 18 18 17 16 15 14 16 19 21 22 23 25 26 26 26 26 26 27 28 29 29
33 33 33 33 32 31 32 32 32 32 33 33 33 33 34 34 33 31 30 28 26 24 23 21 20 18 17 15 13 11 10 8 7 6 5 4 3 2 2 3 4 4 5 7 9 10 12 13 14 15 16 17 17 17 18 18 18 16 14 15 17 20 21 22 23 25 25 25 26 27 28 27 28 29
29 29 30 30 29 28 29 29 29 29 29 30 30 31 32 32 31 30 29 28 26 23 22 20 18 17 15 14 12 10 9 8 7 6 5 4 3 2 3 4 4 5 6 7 9 10 12 13 14 15 16 16 16 16 17 18 18 16 15 15 16 17 18 19 20 21 21 23 26 27 28 28 31 32
27 27 27 26 25 25 26 26 26 26 27 27 28 29 29 29 29 28 28 26 24 22 21 19 17 15 13 12 10 9 9 8 7 7 5 4 3 3 4 4 4 5 6 7 9 10 12 13 14 15 16 17 16 16 17 18 18 18 17 16 16 16 15 15 16 17 19 22 25 26 25 26 30 33
29 29 28 26 25 24 23 23 23 24 23 24 25 26 27 27 27 26 26 25 23 21 19 18 16 14 12 11 10 9 9 8 8 7 5 4 3 3 4 5 5 5 6 8 9 11 12 14 15 16 16 17 16 17 17 17 18 19 20 19 17 16 14 14 14 14 16 19 23 25 25 26 29 31
28 28 28 27 26 25 24 23 22 22 21 21 22 23 25 26 26 25 25 24 22 20 18 17 16 14 13 12 11 10 9 9 8 6 5 4 4 4 5 5 5 6 7 8 9 11 12 13 14 15 16 16 16 16 17 17 17 19 20 20 19 17 14 13 13 13 14 16 19 21 23 26 28 30
25 25 25 25 24 24 23 23 22 21 20 20 22 23 24 25 24 24 23 22 21 20 18 17 15 14 13 12 11 10 10 9 7 6 5 4 5 5 5 5 5 6 7 8 9 11 12 13 14 15 16 16 16 16 16 16 16 18 19 20 20 18 16 14 14 15 15 16 17 19 20 22 24 25
22 21 21 21 19 19 19 19 19 19 19 20 21 22 23 23 23 22 22 20 19 18 17 16 15 13 13 12 11 10 10 8 7 6 5 5 5 5 5 5 6 6 7 8 9 10 11 13 14 15 15 15 16 16 15 14 15 17 18 18 18 18 18 17 17 18 18 18 18 20 22 23 24 24
Wind_Direction
228 225 225 226 228 230 231 232 232 231 230 232 234 235 233 221 208 205 210 214 216 217 216 215 214 215 217 213 207 207 211 214 217 221 227 233 239 246 253 259 265 272 283 297 308 312 313 314 314 312 310 306 301 299 296 296 300 305 309 313 316 319 322 322 322 323 328 332 335 337 339 341 342 342
226 224 224 225 228 230 232 233 233 231 230 231 233 234 236 233 220 212 209 211 216 219 217 217 217 217 215 210 206 207 210 213 216 221 228 234 239 244 251 258 264 272 284 297 305 309 312 311 310 309 308 305 300 296 294 294 298 305 310 314 317 320 320 319 321 325 330 333 334 336 338 340 341 341
225 223 223 223 226 229 231 233 233 232 230 229 231 233 234 235 230 225 218 212 215 220 219 217 216 219 217 209 206 207 209 212 217 221 228 233 237 243 250 257 264 273 286 297 303 307 309 306 306 307 307 304 299 295 293 294 300 306 311 314 317 319 318 318 322 328 331 333 334 335 337 338 339 340
224 223 222 222 224 228 231 233 233 232 230 229 230 231 232 233 232 229 224 219 216 218 219 217 216 218 216 210 208 209 209 211 217 223 227 231 236 243 251 257 265 275 286 295 300 303 303 302 303 305 305 303 298 294 293 295 301 306 311 315 317 317 316 319 325 330 332 332 333 334 336 338 339 338
224 223 223 222 225 228 230 232 233 231 229 228 229 229 230 231 230 228 224 222 221 218 215 214 214 216 216 211 208 210 213 214 217 222 226 230 236 244 251 256 264 276 285 291 296 298 299 300 302 303 304 301 296 293 293 296 300 306 311 314 315 315 317 322 328 331 331 331 332 333 335 337 337 335
222 223 224 224 226 228 229 231 233 230 226 226 228 229 230 229 229 228 225 223 223 222 216 210 208 212 217 215 210 211 215 218 220 223 225 229 236 242 249 256 265 274 281 286 291 293 295 298 299 301 301 297 293 291 292 296 301 307 310 312 313 316 320 326 329 330 330 330 331 333 335 336 334 333
220 222 223 223 226 227 227 230 233 230 225 225 228 229 230 230 229 227 226 226 226 224 219 211 206 207 212 214 212 212 215 219 221 223 226 231 236 241 247 255 264 272 277 282 287 289 292 294 296 297 296 293 290 289 292 297 302 306 308 312 315 319 323 327 329 329 329 330 331 333 334 333 332 332
220 220 221 223 226 224 224 228 231 229 225 226 228 230 232 232 231 228 227 228 229 226 220 212 206 207 210 210 211 212 213 215 220 223 227 232 236 239 245 253 260 267 274 279 283 286 289 290 291 293 291 289 287 288 293 298 302 305 310 314 317 320 324 327 328 329 329 330 332 333 332 331 331 332
222 219 219 222 224 222 222 227 228 227 225 226 228 231 232 233 233 230 227 227 228 226 223 216 206 206 209 209 210 213 215 215 217 221 226 231 234 237 242 249 256 263 271 276 279 283 285 285 287 288 287 286 285 287 293 298 303 308 312 314 317 320 324 326 328 329 330 331 332 331 330 330 331 333
222 219 219 222 224 222 222 225 227 226 225 226 229 232 233 234 235 231 227 226 225 223 223 222 213 208 209 209 209 212 216 220 222 223 223 226 231 236 241 246 254 262 269 273 276 279 279 280 282 284 284 282 281 286 294 299 304 308 311 313 317 322 325 327 329 330 330 330 330 329 329 330 332 333
220 219 219 221 224 224 224 226 226 226 225 226 229 232 234 236 237 234 229 226 223 218 218 220 218 213 211 211 212 212 214 218 224 228 229 229 231 235 240 247 254 261 267 270 273 275 275 276 278 281 280 278 278 285 294 300 304 307 310 314 319 323 326 327 329 329 329 329 328 328 329 330 332 333
220 219 220 222 223 223 224 226 226 226 225 225 228 233 236 238 237 234 229 224 221 217 215 216 217 215 211 211 212 214 214 215 220 226 230 233 235 237 242 247 253 259 264 268 270 271 271 272 275 277 276 273 276 285 294 299 303 306 310 316 321 323 325 327 328 328 328 328 328 328 329 330 332 334
220 219 220 222 223 223 223 224 226 226 226 226 228 232 235 237 235 230 225 221 218 215 212 213 215 214 212 212 212 214 218 220 223 224 225 228 232 235 240 246 251 257 262 265 266 267 268 271 274 274 272 271 276 286 293 298 302 306 311 316 320 322 324 326 327 328 328 328 328 328 329 332 334 335
220 219 220 221 223 224 225 225 225 227 228 228 230 233 235 236 233 227 221 218 217 216 214 217 219 217 215 215 215 217 220 222 224 225 226 226 228 233 237 242 248 254 259 262 263 264 267 270 273 273 271 272 279 286 291 296 301 306 310 314 318 321 324 326 327 328 328 327 327 328 330 333 335 336
221 218 219 221 221 223 227 227 225 226 228 231 232 234 237 239 236 231 225 218 215 218 220 221 222 221 219 217 217 219 221 222 223 225 226 227 230 236 240 243 248 253 257 261 261 262 265 267 269 270 270 273 279 284 289 295 301 305 308 312 316 321 324 326 327 328 327 327 327 329 332 335 336 337
222 220 220 221 220 223 226 223 221 224 228 231 233 234 238 240 238 236 234 226 219 220 223 222 222 223 223 221 219 221 224 224 224 223 224 227 233 238 241 245 250 253 257 261 260 261 263 265 265 266 267 272 277 283 289 295 300 303 307 312 317 322 325 327 328 328 327 327 329 331 333 335 337 337
221 220 220 219 218 220 220 217 218 224 227 228 229 231 233 233 231 231 232 230 228 228 227 225 226 228 228 226 224 226 227 225 224 222 223 228 232 235 239 246 251 254 257 259 259 260 261 261 261 262 265 271 277 284 291 296 299 303 307 312 318 323 327 328 329 329 328 328 331 333 334 336 337 336
220 219 217 215 214 213 213 214 217 222 225 225 225 227 227 223 222 223 224 225 228 229 228 229 231 232 231 229 229 229 226 225 225 226 228 230 231 234 240 246 251 254 255 256 256 258 257 256 257 260 264 271 278 285 290 294 298 302 307 315 320 324 327 329 330 329 328 330 333 335 335 335 335 334
220 215 209 208 207 206 207 213 218 221 222 221 219 218 217 215 215 216 216 218 221 223 226 231 234 234 232 230 228 227 223 220 221 224 226 228 231 234 239 244 249 250 250 250 251 253 253 253 255 258 264 273 280 285 288 292 297 303 309 317 322 326 329 331 331 330 329 332 334 335 335 333 333 333
215 206 200 200 202 203 206 211 218 223 224 221 214 210 209 209 209 210 210 212 215 218 222 224 225 228 228 223 218 218 219 217 217 218 219 222 226 231 235 240 243 244 244 245 246 247 248 249 252 256 263 273 278 282 285 290 297 304 313 320 324 328 331 332 332 331 331 334 336 336 334 333 333 332
209 201 199 200 200 202 207 211 217 223 223 217 209 204 202 203 204 205 204 204 204 205 205 204 205 211 214 210 206 208 213 216 220 222 224 225 226 228 232 235 237 239 240 240 239 241 243 244 245 251 262 271 271 273 281 291 301 308 316 323 327 330 332 333 333 332 333 336 337 336 335 334 332 331
201 200 200 201 201 202 205 210 215 216 211 203 197 197 198 199 199 198 196 194 192 189 189 193 196 199 202 203 204 207 210 213 217 219 222 224 223 223 228 232 234 236 237 236 233 235 242 244 238 242 259 262 253 263 285 297 307 313 317 324 329 330 332 334 334 334 336 338 338 338 338 336 334 332
196 201 204 206 210 211 209 209 211 208 201 196 193 193 194 192 189 189 190 190 190 188 189 192 194 194 197 201 204 207 208 210 212 212 213 218 219 222 227 229 230 232 233 233 231 231 239 241 232 233 248 242 234 257 297 306 312 317 320 325 328 329 332 334 335 337 339 340 341 341 341 339 337 334
198 203 208 211 214 213 210 208 206 201 199 198 194 191 191 189 186 186 188 191 194 194 193 193 193 193 195 197 200 203 202 202 203 203 205 213 216 219 223 225 227 230 231 231 230 231 233 234 230 231 234 229 230 248 286 301 308 317 322 326 328 329 331 334 336 339 342 343 344 343 343 342 340 337
202 204 207 208 206 202 201 201 199 197 197 198 194 190 191 192 191 189 189 191 195 196 194 192 191 192 193 192 192 193 191 191 194 198 204 210 212 214 219 222 226 229 230 227 225 227 230 230 230 239 253 263 264 268 282 297 308 318 326 329 329 330 332 335 338 342 345 346 346 346 345 344 342 340
203 202 203 201 198 195 195 195 192 191 193 194 192 188 188 191 193 192 192 192 192 192 192 191 190 189 188 186 183 181 182 185 190 197 202 204 206 210 216 221 225 228 227 222 221 225 232 233 235 251 270 282 288 292 297 302 308 316 326 331 332 332 333 336 341 345 348 349 348 347 347 346 343 341
201 200 199 196 193 190 190 189 187 186 188 189 189 186 187 190 191 191 191 189 188 188 189 189 186 182 181 180 177 176 180 183 186 190 192 194 199 204 209 214 218 223 224 223 226 232 242 250 259 276 287 293 298 303 306 308 309 314 321 329 333 334 334 337 342 347 350 350 349 348 347 347 346 344
199 196 194 190 186 183 183 184 184 184 184 183 184 185 188 189 189 188 187 186 186 186 184 182 180 175 173 175 174 174 178 178 177 178 180 185 192 195 201 206 210 216 223 230 240 251 268 284 294 302 306 308 311 311 313 314 315 317 319 324 330 332 334 338 343 346 350 351 350 349 348 348 348 347
193 191 186 183 180 180 181 183 182 182 181 179 180 184 185 184 184 185 186 185 184 182 178 176 175 170 167 170 171 170 169 167 166 169 171 176 180 182 188 194 196 206 223 245 279 301 313 316 320 323 321 320 319 317 317 317 317 319 321 325 329 333 336 340 343 345 348 351 351 350 349 349 349 349
183 181 180 180 179 178 178 179 177 175 174 173 174 177 179 180 181 183 183 182 180 177 174 172 171 168 166 167 165 161 160 160 159 158 159 163 166 169 173 176 175 191 253 322 333 337 338 337 338 337 331 327 323 319 317 315 312 315 323 329 334 336 338 342 344 344 346 348 349 350 349 348 348 349
180 178 179 179 178 174 172 172 169 166 167 170 171 172 173 175 176 176 178 178 176 174 172 169 168 167 164 162 158 155 155 155 151 147 149 154 156 154 151 144 129 89 12 360 356 354 352 349 347 343 337 331 325 319 315 309 307 313 323 330 335 339 340 343 344 343 343 344 347 350 350 348 348 350
180 180 178 175 171 168 167 168 166 165 167 168 168 168 168 168 168 168 170 171 171 171 170 168 166 163 159 156 154 153 152 148 144 143 145 145 142 133 118 97 67 34 10 4 3 0 357 354 348 343 339 335 330 325 316 303 304 316 326 329 333 339 342 342 342 341 341 341 343 348 352 351 351 352
181 176 171 167 165 167 168 169 167 165 164 164 163 163 162 162 163 165 167 168 168 168 168 166 163 159 156 153 151 150 148 144 141 141 140 133 127 118 104 79 50 18 355 356 359 356 353 351 347 343 342 339 336 335 324 304 308 321 327 330 334 340 343 342 340 339 340 340 341 345 350 354 354 354
177 170 165 164 166 168 169 167 165 163 162 160 158 157 158 160 162 163 165 167 166 165 165 163 160 157 155 152 149 146 144 141 140 140 137 130 121 116 112 100 76 13 333 342 348 346 345 345 344 345 345 343 347 352 346 324 323 327 329 333 338 342 343 342 339 338 339 340 341 342 346 352 355 354
169 164 163 164 165 167 167 164 162 160 159 157 155 155 157 160 161 162 164 165 163 162 160 158 155 152 151 149 147 144 142 141 140 139 138 133 128 127 130 128 103 338 327 333 336 336 339 340 341 344 344 346 354 2 2 349 343 339 334 336 340 342 342 340 338 337 338 339 341 342 344 348 353 355
166 162 163 163 162 163 163 160 159 157 156 156 155 155 157 158 160 161 162 161 161 159 157 153 151 149 148 147 145 144 144 145 145 144 143 142 142 143 151 176 297 314 321 328 332 334 337 339 341 344 345 345 350 358 0 360 357 349 340 339 341 341 339 336 335 335 337 339 342 344 343 344 349 353
164 163 162 159 158 159 158 158 158 156 155 155 156 157 157 157 158 159 159 158 157 156 154 152 150 148 148 148 146 147 149 151 153 154 155 156 160 168 193 271 306 314 320 327 332 334 337 341 342 344 346 347 349 351 353 358 7 2 347 340 340 338 334 332 333 334 336 339 342 344 343 343 347 352
159 158 155 152 151 154 156 158 157 156 156 157 157 157 157 155 155 156 156 155 155 154 153 152 150 149 150 150 150 153 157 160 162 166 169 174 185 204 247 287 307 318 323 330 334 336 340 343 343 343 346 350 352 351 348 352 5 9 355 339 335 333 331 331 331 333 337 338 340 342 342 343 347 350
150 147 144 143 146 151 156 158 157 156 157 158 158 158 156 155 155 156 156 156 157 156 155 154 153 153 154 154 156 161 165 166 171 176 182 191 207 241 280 294 306 320 330 335 337 339 341 343 343 344 348 351 353 352 347 347 353 357 350 336 329 329 329 330 331 333 336 338 339 340 342 344 349 352
144 142 141 143 147 152 155 155 155 156 157 157 158 159 158 157 157 158 158 158 159 159 158 158 158 160 160 159 161 167 171 174 180 187 195 206 223 257 284 294 307 323 336 340 339 338 340 341 343 346 348 351 353 351 347 344 344 344 341 335 331 329 329 331 334 337 339 339 341 342 344 348 352 356
138 135 136 139 143 147 148 149 151 154 156 157 159 160 160 160 160 160 160 161 162 162 162 163 164 166 166 165 168 174 178 182 188 195 206 217 234 264 280 291 308 326 338 340 336 335 339 342 345 347 349 351 353 349 345 342 340 341 342 340 337 334 331 331 336 340 340 341 344 347 348 350 353 357
131 129 130 133 135 137 140 142 147 152 155 157 159 161 162 162 161 161 162 164 165 165 166 168 171 173 172 172 175 180 185 191 197 201 210 225 243 262 276 291 311 329 338 336 333 334 339 343 347 349 351 352 352 347 343 341 340 340 342 343 343 340 336 332 336 342 343 344 349 353 354 353 354 356
126 127 129 131 133 136 138 141 145 151 156 159 162 165 166 165 165 166 167 168 168 170 173 176 177 178 177 178 180 184 190 197 203 205 212 230 248 262 279 295 313 326 332 332 332 335 341 345 348 350 352 352 350 345 342 341 340 339 339 341 344 344 341 336 338 346 352 354 358 1 1 359 358 356
122 124 126 129 133 137 141 145 150 156 162 166 169 171 172 171 171 171 171 172 173 175 178 181 182 181 181 181 184 189 194 198 203 208 217 233 248 263 280 295 309 320 326 328 332 336 341 345 347 350 352 351 348 344 342 341 341 339 338 339 340 340 341 342 343 346 351 356 360 2 3 3 2 359
118 121 124 127 132 138 143 150 156 162 168 172 174 175 175 175 175 174 174 177 179 181 183 184 183 182 183 185 189 193 196 199 203 210 221 235 246 260 277 293 306 317 322 325 330 336 342 346 347 349 351 350 347 345 342 339 339 340 339 339 338 339 343 348 349 348 351 357 2 5 6 5 5 4